This is the latest recevied weather packets stored in our database for station/object OE7BJT-13. If no packets are shown the sender has not sent any weather packets the latest 10 day(s).
| Time | Temp. | Humidity | Pressure | Rain* | Wind** | Luminosity | Snow |
|---|---|---|---|---|---|---|---|
| 1777629948 | 19.44° C | 25% | 1025 hPa | - | - | - | - |
| 1777629343 | 19.44° C | 25% | 1025 hPa | - | - | - | - |
| 1777627526 | 17.78° C | 29% | 1026 hPa | - | - | - | - |
| 1777626920 | 17.22° C | 31% | 1026 hPa | - | - | - | - |
| 1777626315 | 17.22° C | 33% | 1026 hPa | - | - | - | - |
| 1777625709 | 16.11° C | 32% | 1026 hPa | - | - | - | - |
| 1777625104 | 15° C | 33% | 1026 hPa | - | - | - | - |
| 1777624498 | 15° C | 36% | 1026 hPa | - | - | - | - |
| 1777623287 | 12.78° C | 38% | 1026 hPa | - | - | - | - |
| 1777622681 | 13.33° C | 37% | 1026 hPa | - | - | - | - |
| 1777621470 | 10.56° C | 39% | 1026 hPa | - | - | - | - |
| 1777620259 | 10° C | 50% | 1027 hPa | - | - | - | - |
| 1777619653 | 9.44° C | 50% | 1027 hPa | - | - | - | - |
| 1777619048 | 8.89° C | 51% | 1027 hPa | - | - | - | - |
| 1777618442 | 8.89° C | 51% | 1027 hPa | - | - | - | - |
| 1777617836 | 7.78° C | 55% | 1027 hPa | - | - | - | - |
| 1777616625 | 6.11° C | 64% | 1027 hPa | - | - | - | - |
| 1777616020 | 4.44° C | 69% | 1027 hPa | - | - | - | - |
| 1777614809 | 3.33° C | 77% | 1027 hPa | - | - | - | - |
| 1777614203 | 3.33° C | 78% | 1027 hPa | - | - | - | - |
| 1777613597 | 3.33° C | 81% | 1027 hPa | - | - | - | - |
| 1777612386 | 2.78° C | 77% | 1027 hPa | - | - | - | - |
| 1777611780 | 2.78° C | 78% | 1027 hPa | - | - | - | - |
| 1777611175 | 1.67° C | 81% | 1027 hPa | - | - | - | - |
| 1777610569 | 1.11° C | 83% | 1026 hPa | - | - | - | - |
* Rain since midnight (hover to see other rain measurements)
** Current wind speed in m/s (hover to see current wind gust speed)